GOES 13

Last updated on Tue Oct 08 2024 00:02:27 GMT+0000 (Coordinated Universal Time)

1 29155U 06018A 24281.10986898 .00000061 00000+0 00000+0 0 9998 2 29155 2.9130 83.8991 0063146 256.3219 152.2267 0.98843465 37142
UTC large
Height (km)
Speed (km/s)
/
Latitude / Longitude
Inclination (degrees)
Orbital Period (minutes)
Azimuth
Elevation
Range (km)
Doppler Factor

Next 0 passes for location: London (51.5072 / 0.1276)

Sorry there are no passes over London.